GOMX-4A (43197 NORAD) Tracking and Keplerian Element Data

This shows tracking and keplerian element data for the satellite.

Feedback or suggestion? Click here.




ElementValue
Catalog43197
NameGOMX-4A
Epoch Orbit12013
Epoch Day92.12374591
Epoch Year2020
RAAN221.3791
Inclination97.4237
Eccentricity0.0019721
Argument of Perigee22.0581
Mean Anonmoly82.7771
Mean Motion15.24386326
Decay Rate6.21E-06
L11 43197U 18015F 20092.12374591 .00000621 00000-0 28194-4 0 9991
L22 43197 97.4237 221.3791 0019721 22.0581 82.7771 15.24386326120130

Live tracking and technical data element details for GOMX-4A (NORAD 43197). GOMX-4A can be tracked NOW for your location showing map with azimuth and elevation plus other details from your city location.

Track the satellite on the map from your city or location and see movement details for azimuth, elevation, latitude, longitude, range, height, and movement on the map or in text.







IsCatalogInMostPopularTable: catalog: 43197, numindb: 377
Update: records affected: 1



GetName: 43197 GOMX-4A

Hit Count: updated at: Fri, 03 Apr 2020 07:34:46 GMT